星链-5432 (STARLINK-5432 )

导读

STARLINK-5432是美国SpaceX公司星链星座的一颗低轨通信卫星,于2022年12月28日发射。作为星链巨型互联网星座的组成部分,它运行在近地轨道,搭载先进通信载荷,依托氪工质霍尔推进器完成轨道维持与离轨,旨在为全球提供高速低延迟互联网覆盖,助力填补偏远地区网络鸿沟,目前处于在轨运行状态。

基本信息
目录编号:
54848
目录名称:
STARLINK-5432
国际标识:
2022-177AE
轨道中心:
EARTH
卫星名称:
星链-5432
卫星全名:
星链-5432 (STARLINK-5432 )
卫星状态:
在轨 (已飞行1346 天)
发射日期:
2022-12-28 UTC
国别 :
美国 (US)
星等 :
--
轨道信息
数据来源 国际轨道数据 AOE轨道数据
星历时间 2026-09-04T13:18:35+0800
11小时前
查看轨道信息
2026-09-04T00:00:00+0800
1天前
查看轨道信息
半长轴 6861.179km 6861.201km
偏心率 0.000081 0.0000179
轨道倾角 43.002° 43.000°
近地点辐角 235.410° 224.736°
升交点赤经 193.426° 196.562°
平近点角 124.667° 321.981°
近地点 482.486km 482.941km
远地点 483.598km 483.187km
周期 94.267分钟 94.267分钟
每日圈数 15.275827 15.275752
详细信息
固有亮度:
5
最大亮度:
2.5
卫星平台:
Starlink v1.5
覆盖范围:
全球
运营商:
太空探索技术公司
运营商所在国:
美国
制造商(研发单位):
太空探索技术公司
制造商所在国:
美国
使用方式:
暂无
卫星简介
星链(Starlink)计划是由太空探索技术公司(SpaceX)提出的一个巨型低轨卫星互联网星座项目,计划在2019年至2024年间在太空搭建由约1.2万颗卫星组成的“星链”网络,其中1584颗将部署在地球上空550千米处的近地轨道,并从2020年开始工作。该卫星仍在工作。
2D轨道图
3D轨道图
轨道高度分析图
轨道倾角分析图
轨道综合分析图
查看轨道综合分析图
交会数据列表
事件ID 空间交会对象 最接近时刻(TCA) 交会距离 交会风险概率(CRP) 交会风险指数(CRI) 操作
CDM_260830-220805-484806-419921
SJ-26 (64199)
2026-08-30T
22:08:58+0000
2.810 km
极远距离
1.295407E-6 低风险 0.37